User: anonymous   Login
Location: Lourdes
(43.1000°N, 0.0500°W)
Time: 22:29:12
(UTC+00:00)
Language:

IRIDIUM 102 - Orbit

View from above orbital plane
View from above orbital plane
View from above satellite
View from above satellite

Ground track
Ground track

The orbit data is extracted from the following two-line orbital elements,

1 41920U 17003D   21175.12239418  .00000062  00000-0  15114-4 0  9997
2 41920  86.3974 128.6152 0002111  80.2918 279.8516 14.34217102232553
Epoch (UTC): 24 June 2021 02:56:14
Eccentricity: 0.0002111
inclination: 86.3974°
perigee height: 776 km
apogee height: 779 km
right ascension of ascending node: 128.6152°
argument of perigee: 80.2918°
revolutions per day: 14.34217102
mean anomaly at epoch: 279.8516°
orbit number at epoch: 23255

The dashed part of the orbit path shows where the satellite is in the earth's shadow,  

DLR